Weather in Changwon

South Korea     35°11′43″N   128°38′10″E
temp.,
°C
wind,
m/s
gust,
m/s
humid.,
%
clouds,
%
prec.,
mm/h
press.,
hPa
HPBL,
m
9 march, tue
tue900:00+6ne126757 0.0 1026144
03:00+5n116978 0.0 1026101
06:00+5nne1269100 0.0 102591
09:00+7nnw1160100 0.0 1026257
12:00+12nw1249100 0.0 1025828
15:00+14w2338100 0.0 10231321
18:00+12nw1347100 0.0 1023473
21:00+10nnw2650100 0.0 1025388
10 march, wed
wed1000:00+8nnw374587 0.0 1025348
03:00+6nnw245046 0.0 1025177
06:00+5n22560 0.0 102795
09:00+8n23500 0.0 1029294
12:00+13ene34490 0.0 1029995
15:00+14e33410 0.0 10281118
18:00+11e34490 0.0 1029480
21:00+8ene12570 0.0 1030289
11 march, thu
thu1100:00+7ne11630 0.0 103069
03:00+6nne116717 0.0 103058
06:00+5nne1168100 0.0 102931
09:00+8n115599 0.0 1030190
12:00+14w1036100 0.0 1028558
15:00+15s1230100 0.0 1026834
18:00+13sse1141100 0.0 1026250
21:00+12s1153100 0.0 1026123
12 march, fri
fri1200:00+11nw0157100 0.0 102636
03:00+10nnw1265100 0.3 1025107
06:00+8n2386100 2.2 1024176
09:00+8nne2393100 8.5 1025212
12:00+9nne2490100 3.4 1025351
15:00+9nne2587100 4.3 1023418
18:00+9ne1292100 1.8 1023185
21:00+9n129098 2.0 102598
13 march, sat
sat1300:00+8n129094 0.0 1024104
03:00+8nnw239293 0.0 1023138
06:00+7n129255 0.0 102384
09:00+9nne257635 0.0 1024544
12:00+12nne236147 0.0 1023981
15:00+14n225771 0.1 10211085
18:00+12nne126147 0.0 1020574
21:00+10se017256 0.0 102133